ARCSTONE (64540 NORAD) Tracking and Keplerian Element Data

This shows tracking and keplerian element data for the satellite.

Feedback or suggestion? Click here.




ElementValue
Catalog64540
NameARCSTONE
Epoch Orbit2767
Epoch Day354.11268362
Epoch Year2025
RAAN106.3516
Inclination97.451
Eccentricity0.0004304
Argument of Perigee100.0474
Mean Anonmoly260.125
Mean Motion15.24395342
Decay Rate0.00013691
L11 64540U 25135N 25354.11268362 .00013691 00000+0 56092-3 0 9997
L22 64540 97.4510 106.3516 0004304 100.0474 260.1250 15.24395342 27672



Live tracking and technical data element details for ARCSTONE (NORAD 64540). ARCSTONE can be tracked NOW for your location showing map with azimuth and elevation plus other details from your city location.







IsCatalogInMostPopularTable: catalog: 64540, numindb: 5
Update: records affected: 1



GetName: 64540 ARCSTONE

Hit Count: updated at: Wed, 15 Apr 2026 00:50:57 GMT